Wetterdaten: Donnerstag, 15.10.2015
Datum Zeit Auen-Temp. Temp gefhlt Luftfeuchte Luftdruck Regen Wind Richtung Richtung Taupunkt Windben
15.10.2015 00:00 0,6 C 0,3 C 89 % 1012,8 hPa 0,0 mm 0,0 km/h (0 Bft) S-SO 157 -1,0 C 0,0 km/h (0 Bft)
15.10.2015 00:05 0,6 C 0,3 C 89 % 1012,8 hPa 0,0 mm 0,0 km/h (0 Bft) S-SO 157 -1,0 C 0,0 km/h (0 Bft)
15.10.2015 00:10 0,5 C 0,3 C 89 % 1012,6 hPa 0,0 mm 0,0 km/h (0 Bft) S-SO 157 -1,1 C 0,0 km/h (0 Bft)
15.10.2015 00:15 0,5 C 0,3 C 89 % 1012,6 hPa 0,0 mm 0,0 km/h (0 Bft) S-SO 157 -1,1 C 0,0 km/h (0 Bft)
15.10.2015 00:20 0,4 C 0,2 C 89 % 1012,6 hPa 0,0 mm 0,0 km/h (0 Bft) S-SO 157 -1,2 C 0,0 km/h (0 Bft)
15.10.2015 00:25 0,4 C 0,2 C 89 % 1012,6 hPa 0,0 mm 0,0 km/h (0 Bft) S-SO 157 -1,2 C 0,0 km/h (0 Bft)
15.10.2015 00:30 0,3 C 0,1 C 90 % 1012,5 hPa 0,0 mm 0,0 km/h (0 Bft) S-SO 157 -1,1 C 0,0 km/h (0 Bft)
15.10.2015 00:35 0,3 C 0,1 C 90 % 1012,5 hPa 0,0 mm 0,0 km/h (0 Bft) S-SO 157 -1,1 C 0,0 km/h (0 Bft)
15.10.2015 00:40 0,3 C 0,1 C 90 % 1012,5 hPa 0,0 mm 0,0 km/h (0 Bft) S-SO 157 -1,1 C 0,0 km/h (0 Bft)
15.10.2015 00:45 0,3 C 0,1 C 90 % 1012,5 hPa 0,0 mm 0,0 km/h (0 Bft) S-SO 157 -1,1 C 0,0 km/h (0 Bft)
15.10.2015 00:50 0,3 C 0,1 C 90 % 1012,5 hPa 0,0 mm 0,0 km/h (0 Bft) S-SO 157 -1,1 C 0,0 km/h (0 Bft)
15.10.2015 00:55 0,2 C 0,1 C 87 % 1012,5 hPa 0,0 mm 0,0 km/h (0 Bft) S-SO 157 -1,7 C 0,0 km/h (0 Bft)
15.10.2015 01:00 0,2 C 0,1 C 87 % 1012,5 hPa 0,0 mm 0,0 km/h (0 Bft) S-SO 157 -1,7 C 0,0 km/h (0 Bft)
15.10.2015 01:05 0,2 C 0,0 C 90 % 1012,5 hPa 0,0 mm 0,0 km/h (0 Bft) S-SO 157 -1,2 C 0,0 km/h (0 Bft)
15.10.2015 01:10 0,2 C 0,0 C 90 % 1012,2 hPa 0,0 mm 0,0 km/h (0 Bft) S-SO 157 -1,2 C 0,0 km/h (0 Bft)
15.10.2015 01:15 0,2 C 0,0 C 90 % 1012,2 hPa 0,0 mm 0,0 km/h (0 Bft) S-SO 157 -1,2 C 0,0 km/h (0 Bft)
15.10.2015 01:20 0,2 C 0,0 C 90 % 1012,2 hPa 0,0 mm 0,0 km/h (0 Bft) S-SO 157 -1,2 C 0,0 km/h (0 Bft)
15.10.2015 01:25 0,2 C 0,0 C 90 % 1012,2 hPa 0,0 mm 0,0 km/h (0 Bft) S-SO 157 -1,2 C 0,0 km/h (0 Bft)
15.10.2015 01:30 0,2 C 0,0 C 90 % 1012,1 hPa 0,0 mm 0,0 km/h (0 Bft) S-SO 157 -1,2 C 0,0 km/h (0 Bft)
15.10.2015 01:35 0,2 C 0,0 C 90 % 1012,1 hPa 0,0 mm 0,0 km/h (0 Bft) S-SO 157 -1,2 C 0,0 km/h (0 Bft)
15.10.2015 01:40 0,2 C 0,0 C 90 % 1012,1 hPa 0,0 mm 0,0 km/h (0 Bft) S-SO 157 -1,2 C 0,0 km/h (0 Bft)
15.10.2015 01:45 0,2 C 0,0 C 91 % 1012,1 hPa 0,0 mm 0,0 km/h (0 Bft) S-SO 157 -1,1 C 0,0 km/h (0 Bft)
15.10.2015 01:50 0,2 C 0,0 C 91 % 1011,9 hPa 0,0 mm 0,0 km/h (0 Bft) S-SO 157 -1,1 C 0,0 km/h (0 Bft)
15.10.2015 01:55 0,2 C 0,0 C 91 % 1011,9 hPa 0,0 mm 0,0 km/h (0 Bft) S-SO 157 -1,1 C 0,0 km/h (0 Bft)
15.10.2015 02:00 0,2 C 0,0 C 91 % 1011,9 hPa 0,0 mm 0,0 km/h (0 Bft) S-SO 157 -1,1 C 0,0 km/h (0 Bft)
15.10.2015 02:05 0,2 C 0,0 C 91 % 1011,9 hPa 0,0 mm 0,0 km/h (0 Bft) S-SO 157 -1,1 C 0,0 km/h (0 Bft)
15.10.2015 02:10 0,2 C 0,0 C 91 % 1012,0 hPa 0,0 mm 0,0 km/h (0 Bft) S-SO 157 -1,1 C 0,0 km/h (0 Bft)
15.10.2015 02:15 0,2 C 0,0 C 91 % 1012,0 hPa 0,0 mm 0,0 km/h (0 Bft) S-SO 157 -1,1 C 0,0 km/h (0 Bft)
15.10.2015 02:20 0,2 C 0,0 C 91 % 1012,0 hPa 0,0 mm 0,0 km/h (0 Bft) S-SO 157 -1,1 C 0,0 km/h (0 Bft)
15.10.2015 02:25 0,1 C -0,1 C 91 % 1012,0 hPa 0,0 mm 0,0 km/h (0 Bft) S-SO 157 -1,2 C 0,0 km/h (0 Bft)
15.10.2015 02:30 0,2 C 0,0 C 91 % 1011,9 hPa 0,0 mm 0,0 km/h (0 Bft) S-SO 157 -1,1 C 0,0 km/h (0 Bft)
15.10.2015 02:35 0,2 C 0,0 C 91 % 1011,9 hPa 0,0 mm 0,0 km/h (0 Bft) S-SO 157 -1,1 C 0,0 km/h (0 Bft)
15.10.2015 02:40 0,2 C 0,0 C 91 % 1011,9 hPa 0,0 mm 0,0 km/h (0 Bft) S-SO 157 -1,1 C 0,0 km/h (0 Bft)
15.10.2015 02:45 0,2 C 0,0 C 91 % 1011,9 hPa 0,0 mm 0,0 km/h (0 Bft) S-SO 157 -1,1 C 0,0 km/h (0 Bft)
15.10.2015 02:50 0,2 C 0,0 C 91 % 1011,7 hPa 0,0 mm 0,0 km/h (0 Bft) S-SO 157 -1,1 C 0,0 km/h (0 Bft)
15.10.2015 02:55 0,1 C -0,1 C 91 % 1011,7 hPa 0,0 mm 0,0 km/h (0 Bft) S-SO 157 -1,2 C 0,0 km/h (0 Bft)
15.10.2015 03:00 0,1 C -0,1 C 91 % 1011,7 hPa 0,0 mm 0,0 km/h (0 Bft) S-SO 157 -1,2 C 0,0 km/h (0 Bft)
15.10.2015 03:03 0,1 C -0,1 C 91 % 1011,7 hPa 0,0 mm 0,0 km/h (0 Bft) S-SO 157 -1,2 C 0,0 km/h (0 Bft)
15.10.2015 03:05 0,1 C -0,1 C 91 % 1011,7 hPa 0,0 mm 0,0 km/h (0 Bft) S-SO 157 -1,2 C 0,0 km/h (0 Bft)
15.10.2015 03:10 0,2 C 0,0 C 91 % 1011,8 hPa 0,0 mm 0,0 km/h (0 Bft) S-SO 157 -1,1 C 0,0 km/h (0 Bft)
15.10.2015 03:15 0,2 C 0,0 C 91 % 1011,8 hPa 0,0 mm 0,0 km/h (0 Bft) S-SO 157 -1,1 C 0,0 km/h (0 Bft)
15.10.2015 03:20 0,2 C 0,0 C 91 % 1011,8 hPa 0,0 mm 0,0 km/h (0 Bft) S-SO 157 -1,1 C 0,0 km/h (0 Bft)
15.10.2015 03:25 0,2 C 0,0 C 91 % 1011,8 hPa 0,0 mm 0,0 km/h (0 Bft) S-SO 157 -1,1 C 0,0 km/h (0 Bft)
15.10.2015 03:30 0,1 C -0,1 C 91 % 1011,4 hPa 0,0 mm 0,0 km/h (0 Bft) S-SO 157 -1,2 C 0,0 km/h (0 Bft)
15.10.2015 03:35 0,2 C 0,0 C 92 % 1011,4 hPa 0,0 mm 0,0 km/h (0 Bft) S-SO 157 -0,9 C 0,0 km/h (0 Bft)
15.10.2015 03:40 0,1 C -0,1 C 92 % 1011,4 hPa 0,0 mm 0,0 km/h (0 Bft) S-SO 157 -1,0 C 0,0 km/h (0 Bft)
15.10.2015 03:45 0,1 C -0,1 C 92 % 1011,4 hPa 0,0 mm 0,0 km/h (0 Bft) S-SO 157 -1,0 C 0,0 km/h (0 Bft)
15.10.2015 03:50 0,2 C 0,0 C 92 % 1011,3 hPa 0,0 mm 0,0 km/h (0 Bft) S-SO 157 -0,9 C 0,0 km/h (0 Bft)
15.10.2015 03:55 0,2 C 0,0 C 92 % 1011,3 hPa 0,0 mm 0,0 km/h (0 Bft) S-SO 157 -0,9 C 0,0 km/h (0 Bft)
15.10.2015 04:00 0,1 C -0,1 C 92 % 1011,3 hPa 0,0 mm 0,0 km/h (0 Bft) S-SO 157 -1,0 C 0,0 km/h (0 Bft)
15.10.2015 04:05 0,1 C -0,1 C 92 % 1011,3 hPa 0,0 mm 0,0 km/h (0 Bft) S-SO 157 -1,0 C 0,0 km/h (0 Bft)
15.10.2015 04:10 0,1 C -0,1 C 92 % 1011,2 hPa 0,0 mm 0,0 km/h (0 Bft) S-SO 157 -1,0 C 0,0 km/h (0 Bft)
15.10.2015 04:15 0,1 C -0,1 C 92 % 1011,2 hPa 0,0 mm 0,0 km/h (0 Bft) S-SO 157 -1,0 C 0,0 km/h (0 Bft)
15.10.2015 04:20 0,1 C -0,1 C 92 % 1011,2 hPa 0,0 mm 0,0 km/h (0 Bft) S-SO 157 -1,0 C 0,0 km/h (0 Bft)
15.10.2015 04:25 0,1 C -0,1 C 92 % 1011,2 hPa 0,0 mm 0,0 km/h (0 Bft) S-SO 157 -1,0 C 0,0 km/h (0 Bft)
15.10.2015 04:30 0,1 C -0,1 C 92 % 1010,8 hPa 0,0 mm 0,0 km/h (0 Bft) S-SO 157 -1,0 C 0,0 km/h (0 Bft)
15.10.2015 04:35 0,1 C -0,1 C 92 % 1010,8 hPa 0,0 mm 0,0 km/h (0 Bft) S-SO 157 -1,0 C 0,0 km/h (0 Bft)
15.10.2015 04:40 0,1 C -0,1 C 92 % 1010,8 hPa 0,0 mm 0,0 km/h (0 Bft) S-SO 157 -1,0 C 0,0 km/h (0 Bft)
15.10.2015 04:45 0,1 C -0,1 C 92 % 1010,8 hPa 0,0 mm 0,0 km/h (0 Bft) S-SO 157 -1,0 C 0,0 km/h (0 Bft)
15.10.2015 04:50 0,1 C -0,1 C 92 % 1010,8 hPa 0,0 mm 0,0 km/h (0 Bft) S-SO 157 -1,0 C 0,0 km/h (0 Bft)
15.10.2015 04:55 0,1 C -0,1 C 92 % 1010,8 hPa 0,0 mm 0,0 km/h (0 Bft) S-SO 157 -1,0 C 0,0 km/h (0 Bft)
15.10.2015 05:00 0,1 C -0,1 C 92 % 1010,8 hPa 0,0 mm 0,0 km/h (0 Bft) S-SO 157 -1,0 C 0,0 km/h (0 Bft)
15.10.2015 05:05 0,1 C -0,1 C 92 % 1010,8 hPa 0,0 mm 0,0 km/h (0 Bft) S-SO 157 -1,0 C 0,0 km/h (0 Bft)
15.10.2015 05:10 0,1 C -0,1 C 92 % 1010,8 hPa 0,0 mm 0,0 km/h (0 Bft) S-SO 157 -1,0 C 0,0 km/h (0 Bft)
15.10.2015 05:15 0,1 C -0,1 C 92 % 1010,8 hPa 0,0 mm 0,0 km/h (0 Bft) S-SO 157 -1,0 C 0,0 km/h (0 Bft)
15.10.2015 05:20 0,2 C 0,0 C 92 % 1010,8 hPa 0,0 mm 0,0 km/h (0 Bft) S-SO 157 -0,9 C 0,0 km/h (0 Bft)
15.10.2015 05:25 0,2 C 0,0 C 92 % 1010,8 hPa 0,0 mm 0,0 km/h (0 Bft) S-SO 157 -0,9 C 0,0 km/h (0 Bft)
15.10.2015 05:30 0,2 C 0,0 C 92 % 1010,6 hPa 0,0 mm 0,0 km/h (0 Bft) S-SO 157 -0,9 C 0,0 km/h (0 Bft)
15.10.2015 05:35 0,2 C 0,0 C 92 % 1010,6 hPa 0,0 mm 0,0 km/h (0 Bft) S-SO 157 -0,9 C 0,0 km/h (0 Bft)
15.10.2015 05:40 0,2 C 0,0 C 92 % 1010,6 hPa 0,0 mm 0,0 km/h (0 Bft) S-SO 157 -0,9 C 0,0 km/h (0 Bft)
15.10.2015 05:45 0,2 C 0,0 C 92 % 1010,6 hPa 0,0 mm 0,0 km/h (0 Bft) S-SO 157 -0,9 C 0,0 km/h (0 Bft)
15.10.2015 05:50 0,2 C 0,1 C 88 % 1010,5 hPa 0,0 mm 0,0 km/h (0 Bft) S-SO 157 -1,5 C 0,0 km/h (0 Bft)
15.10.2015 05:55 0,2 C 0,0 C 92 % 1010,5 hPa 0,0 mm 0,0 km/h (0 Bft) S-SO 157 -0,9 C 0,0 km/h (0 Bft)
15.10.2015 06:00 0,2 C 0,0 C 92 % 1010,5 hPa 0,0 mm 0,0 km/h (0 Bft) S-SO 157 -0,9 C 0,0 km/h (0 Bft)
15.10.2015 06:05 0,2 C 0,1 C 89 % 1010,5 hPa 0,0 mm 0,0 km/h (0 Bft) S-SO 157 -1,4 C 0,0 km/h (0 Bft)
15.10.2015 06:10 0,2 C 0,1 C 89 % 1010,6 hPa 0,0 mm 0,0 km/h (0 Bft) S-SO 157 -1,4 C 0,0 km/h (0 Bft)
15.10.2015 06:15 0,2 C 0,0 C 93 % 1010,6 hPa 0,0 mm 0,0 km/h (0 Bft) S-SO 157 -0,8 C 0,0 km/h (0 Bft)
15.10.2015 06:20 0,2 C 0,1 C 89 % 1010,6 hPa 0,0 mm 0,0 km/h (0 Bft) S-SO 157 -1,4 C 0,0 km/h (0 Bft)
15.10.2015 06:25 0,2 C 0,1 C 89 % 1010,6 hPa 0,0 mm 0,0 km/h (0 Bft) S-SO 157 -1,4 C 0,0 km/h (0 Bft)
15.10.2015 06:30 0,2 C 0,1 C 89 % 1010,4 hPa 0,0 mm 0,0 km/h (0 Bft) S-SO 157 -1,4 C 0,0 km/h (0 Bft)
15.10.2015 06:35 0,2 C 0,1 C 89 % 1010,4 hPa 0,0 mm 0,0 km/h (0 Bft) S-SO 157 -1,4 C 0,0 km/h (0 Bft)
15.10.2015 06:40 0,3 C 0,1 C 93 % 1010,4 hPa 0,0 mm 0,0 km/h (0 Bft) S-SO 157 -0,7 C 0,0 km/h (0 Bft)
15.10.2015 06:45 0,3 C 0,1 C 93 % 1010,4 hPa 0,0 mm 0,0 km/h (0 Bft) S-SO 157 -0,7 C 0,0 km/h (0 Bft)
15.10.2015 06:50 0,2 C 0,0 C 93 % 1010,4 hPa 0,0 mm 0,0 km/h (0 Bft) S-SO 157 -0,8 C 0,0 km/h (0 Bft)
15.10.2015 06:55 0,2 C 0,0 C 93 % 1010,4 hPa 0,0 mm 0,0 km/h (0 Bft) S-SO 157 -0,8 C 0,0 km/h (0 Bft)
15.10.2015 07:00 0,2 C 0,0 C 93 % 1010,4 hPa 0,0 mm 0,0 km/h (0 Bft) S-SO 157 -0,8 C 0,0 km/h (0 Bft)
15.10.2015 07:05 0,2 C 0,0 C 93 % 1010,4 hPa 0,0 mm 0,0 km/h (0 Bft) S-SO 157 -0,8 C 0,0 km/h (0 Bft)
15.10.2015 07:10 0,3 C 0,1 C 93 % 1010,1 hPa 0,0 mm 0,0 km/h (0 Bft) S-SO 157 -0,7 C 0,0 km/h (0 Bft)
15.10.2015 07:15 0,3 C 0,1 C 93 % 1010,1 hPa 0,0 mm 0,0 km/h (0 Bft) S-SO 157 -0,7 C 0,0 km/h (0 Bft)
15.10.2015 07:20 0,3 C 0,1 C 93 % 1010,1 hPa 0,0 mm 0,0 km/h (0 Bft) S-SO 157 -0,7 C 0,0 km/h (0 Bft)
15.10.2015 07:25 0,3 C 0,1 C 93 % 1010,1 hPa 0,0 mm 0,0 km/h (0 Bft) S-SO 157 -0,7 C 0,0 km/h (0 Bft)
15.10.2015 07:30 0,3 C 0,1 C 93 % 1010,2 hPa 0,0 mm 0,0 km/h (0 Bft) S-SO 157 -0,7 C 0,0 km/h (0 Bft)
15.10.2015 07:35 0,3 C 0,1 C 93 % 1010,2 hPa 0,0 mm 0,0 km/h (0 Bft) S-SO 157 -0,7 C 0,0 km/h (0 Bft)
15.10.2015 07:40 0,3 C 0,1 C 93 % 1010,2 hPa 0,0 mm 0,0 km/h (0 Bft) S-SO 157 -0,7 C 0,0 km/h (0 Bft)
15.10.2015 07:45 0,3 C 0,1 C 93 % 1010,2 hPa 0,0 mm 0,0 km/h (0 Bft) S-SO 157 -0,7 C 0,0 km/h (0 Bft)
15.10.2015 07:50 0,3 C 0,2 C 89 % 1010,2 hPa 0,0 mm 0,0 km/h (0 Bft) S-SO 157 -1,3 C 0,0 km/h (0 Bft)
15.10.2015 07:55 0,3 C 0,2 C 89 % 1010,2 hPa 0,0 mm 0,0 km/h (0 Bft) S-SO 157 -1,3 C 0,0 km/h (0 Bft)
15.10.2015 08:00 0,3 C 0,2 C 89 % 1010,2 hPa 0,0 mm 0,0 km/h (0 Bft) S-SO 157 -1,3 C 0,0 km/h (0 Bft)
15.10.2015 08:05 0,3 C 0,2 C 89 % 1010,2 hPa 0,0 mm 0,0 km/h (0 Bft) S-SO 157 -1,3 C 0,0 km/h (0 Bft)
15.10.2015 08:10 0,3 C 0,2 C 89 % 1010,2 hPa 0,0 mm 0,0 km/h (0 Bft) S-SO 157 -1,3 C 0,0 km/h (0 Bft)
15.10.2015 08:15 0,3 C 0,2 C 89 % 1010,2 hPa 0,0 mm 0,0 km/h (0 Bft) S-SO 157 -1,3 C 0,0 km/h (0 Bft)
15.10.2015 08:20 0,3 C 0,2 C 89 % 1010,2 hPa 0,0 mm 0,0 km/h (0 Bft) S-SO 157 -1,3 C 0,0 km/h (0 Bft)
15.10.2015 08:25 0,4 C 0,2 C 93 % 1010,2 hPa 0,0 mm 0,0 km/h (0 Bft) S-SO 157 -0,6 C 0,0 km/h (0 Bft)
15.10.2015 08:30 0,4 C 0,2 C 93 % 1010,4 hPa 0,0 mm 0,0 km/h (0 Bft) S-SO 157 -0,6 C 0,0 km/h (0 Bft)
15.10.2015 08:35 0,4 C 0,3 C 89 % 1010,4 hPa 0,0 mm 0,0 km/h (0 Bft) S-SO 157 -1,2 C 0,0 km/h (0 Bft)
15.10.2015 08:40 0,4 C 0,3 C 89 % 1010,4 hPa 0,0 mm 0,0 km/h (0 Bft) S-SO 157 -1,2 C 0,0 km/h (0 Bft)
15.10.2015 08:45 0,4 C 0,3 C 89 % 1010,4 hPa 0,0 mm 0,0 km/h (0 Bft) S-SO 157 -1,2 C 0,0 km/h (0 Bft)
15.10.2015 08:50 0,4 C 0,4 C 89 % 1010,0 hPa 0,0 mm 0,0 km/h (0 Bft) S-SO 157 -1,2 C 0,0 km/h (0 Bft)
15.10.2015 08:55 0,5 C 0,5 C 89 % 1010,0 hPa 0,0 mm 0,0 km/h (0 Bft) S-SO 157 -1,1 C 0,0 km/h (0 Bft)
15.10.2015 09:00 0,5 C 0,5 C 89 % 1010,0 hPa 0,0 mm 0,0 km/h (0 Bft) S-SO 157 -1,1 C 0,0 km/h (0 Bft)
15.10.2015 09:04 0,5 C 0,5 C 89 % 1010,0 hPa 0,0 mm 0,0 km/h (0 Bft) S-SO 157 -1,1 C 0,0 km/h (0 Bft)
15.10.2015 09:05 0,5 C 0,5 C 89 % 1010,0 hPa 0,0 mm 0,0 km/h (0 Bft) S-SO 157 -1,1 C 0,0 km/h (0 Bft)
15.10.2015 09:10 0,6 C 0,5 C 89 % 1010,9 hPa 0,0 mm 0,0 km/h (0 Bft) S-SO 157 -1,0 C 0,0 km/h (0 Bft)
15.10.2015 09:15 0,6 C 0,5 C 89 % 1010,9 hPa 0,0 mm 0,0 km/h (0 Bft) S-SO 157 -1,0 C 0,0 km/h (0 Bft)
15.10.2015 09:20 0,6 C 0,6 C 89 % 1010,9 hPa 0,0 mm 0,0 km/h (0 Bft) S 180 -1,0 C 0,0 km/h (0 Bft)
15.10.2015 09:25 0,6 C 0,6 C 89 % 1010,9 hPa 0,0 mm 0,0 km/h (0 Bft) S 180 -1,0 C 0,0 km/h (0 Bft)
15.10.2015 09:30 0,6 C 0,7 C 89 % 1010,4 hPa 0,0 mm 0,0 km/h (0 Bft) S 180 -1,0 C 0,0 km/h (0 Bft)
15.10.2015 09:35 0,6 C 0,8 C 89 % 1010,4 hPa 0,0 mm 0,0 km/h (0 Bft) S 180 -1,0 C 0,0 km/h (0 Bft)
15.10.2015 09:40 0,7 C 0,9 C 89 % 1010,4 hPa 0,0 mm 0,0 km/h (0 Bft) S 180 -0,9 C 0,0 km/h (0 Bft)
15.10.2015 09:45 0,7 C 0,9 C 89 % 1010,4 hPa 0,0 mm 0,0 km/h (0 Bft) S 180 -0,9 C 0,0 km/h (0 Bft)
15.10.2015 09:50 0,7 C 0,8 C 89 % 1010,6 hPa 0,0 mm 0,0 km/h (0 Bft) S 180 -0,9 C 0,0 km/h (0 Bft)
15.10.2015 09:55 0,7 C 0,7 C 89 % 1010,6 hPa 0,0 mm 0,0 km/h (0 Bft) S 180 -0,9 C 0,0 km/h (0 Bft)
15.10.2015 10:00 0,7 C 0,8 C 89 % 1010,6 hPa 0,0 mm 0,3 km/h (0 Bft) SW 225 -0,9 C 0,0 km/h (0 Bft)
15.10.2015 10:05 0,7 C 1,0 C 89 % 1010,6 hPa 0,0 mm 0,3 km/h (0 Bft) SW 225 -0,9 C 0,0 km/h (0 Bft)
15.10.2015 10:10 1,0 C 1,4 C 89 % 1010,7 hPa 0,0 mm 0,0 km/h (0 Bft) W-SW 247 -0,6 C 0,0 km/h (0 Bft)
15.10.2015 10:15 1,1 C 1,7 C 89 % 1010,7 hPa 0,0 mm 0,0 km/h (0 Bft) S 180 -0,5 C 0,0 km/h (0 Bft)
15.10.2015 10:20 1,2 C 1,9 C 89 % 1010,7 hPa 0,0 mm 0,0 km/h (0 Bft) S-SO 157 -0,4 C 0,0 km/h (0 Bft)
15.10.2015 10:25 1,3 C 2,1 C 89 % 1010,7 hPa 0,0 mm 0,0 km/h (0 Bft) O 90 -0,3 C 0,0 km/h (0 Bft)
15.10.2015 10:30 1,3 C 2,6 C 89 % 1010,6 hPa 0,0 mm 0,3 km/h (0 Bft) W-NW 292 -0,3 C 0,0 km/h (0 Bft)
15.10.2015 10:35 1,4 C 2,7 C 89 % 1010,6 hPa 0,7 mm 0,3 km/h (0 Bft) NW 315 -0,2 C 0,0 km/h (0 Bft)
15.10.2015 10:40 1,4 C 2,6 C 89 % 1010,6 hPa 0,0 mm 0,0 km/h (0 Bft) W 270 -0,2 C 0,0 km/h (0 Bft)
15.10.2015 10:45 1,4 C 2,4 C 89 % 1010,6 hPa 0,0 mm 1,6 km/h (1 Bft) SW 225 -0,2 C 3,4 km/h (1 Bft)
15.10.2015 10:50 1,4 C 2,4 C 89 % 1010,6 hPa 0,0 mm 1,8 km/h (1 Bft) W-SW 247 -0,2 C 6,0 km/h (2 Bft)
15.10.2015 10:55 1,4 C 2,4 C 89 % 1010,6 hPa 0,0 mm 1,6 km/h (1 Bft) W-SW 247 -0,2 C 3,4 km/h (1 Bft)
15.10.2015 11:00 1,4 C 2,1 C 89 % 1010,6 hPa 0,0 mm 2,1 km/h (1 Bft) S 180 -0,2 C 0,0 km/h (0 Bft)
15.10.2015 11:05 1,4 C 1,9 C 89 % 1010,6 hPa 0,7 mm 1,6 km/h (1 Bft) S 180 -0,2 C 4,9 km/h (1 Bft)
15.10.2015 11:10 1,4 C 2,0 C 89 % 1010,9 hPa 0,0 mm 2,8 km/h (1 Bft) SW 225 -0,2 C 7,0 km/h (2 Bft)
15.10.2015 11:15 1,5 C 2,3 C 89 % 1010,9 hPa 0,0 mm 4,4 km/h (1 Bft) SW 225 -0,1 C 3,6 km/h (1 Bft)
15.10.2015 11:20 1,5 C 2,4 C 89 % 1010,9 hPa 0,0 mm 3,1 km/h (1 Bft) S 180 -0,1 C 7,8 km/h (2 Bft)
15.10.2015 11:25 1,6 C 2,6 C 89 % 1010,9 hPa 0,0 mm 2,1 km/h (1 Bft) S-SW 202 -0,0 C 3,4 km/h (1 Bft)
15.10.2015 11:30 1,8 C 2,7 C 89 % 1011,0 hPa 0,0 mm 1,3 km/h (1 Bft) S-SO 157 0,2 C 0,0 km/h (0 Bft)
15.10.2015 11:35 1,9 C 3,0 C 90 % 1011,0 hPa 0,0 mm 0,3 km/h (0 Bft) S-SO 157 0,4 C 0,0 km/h (0 Bft)
15.10.2015 11:40 1,9 C 3,0 C 90 % 1011,0 hPa 0,7 mm 0,0 km/h (0 Bft) W-SW 247 0,4 C 0,0 km/h (0 Bft)
15.10.2015 11:45 1,9 C 2,8 C 90 % 1011,0 hPa 0,0 mm 0,8 km/h (0 Bft) NW 315 0,4 C 2,6 km/h (1 Bft)
15.10.2015 11:50 2,0 C 2,7 C 89 % 1011,0 hPa 0,0 mm 1,3 km/h (1 Bft) W 270 0,4 C 0,0 km/h (0 Bft)
15.10.2015 11:55 1,9 C 2,7 C 90 % 1011,0 hPa 0,0 mm 1,3 km/h (1 Bft) W-NW 292 0,4 C 3,1 km/h (1 Bft)
15.10.2015 12:00 2,0 C 2,9 C 89 % 1011,0 hPa 0,0 mm 1,6 km/h (1 Bft) W 270 0,4 C 2,6 km/h (1 Bft)
15.10.2015 12:05 2,0 C 3,0 C 89 % 1011,0 hPa 0,0 mm 2,8 km/h (1 Bft) N-NW 337 0,4 C 5,2 km/h (1 Bft)
15.10.2015 12:10 2,0 C 2,8 C 89 % 1010,4 hPa 0,0 mm 2,3 km/h (1 Bft) NO 45 0,4 C 0,0 km/h (0 Bft)
15.10.2015 12:15 1,9 C 2,8 C 90 % 1010,4 hPa 0,0 mm 1,8 km/h (1 Bft) W-SW 247 0,4 C 9,6 km/h (2 Bft)
15.10.2015 12:20 1,9 C 2,6 C 90 % 1010,4 hPa 0,0 mm 2,8 km/h (1 Bft) W-NW 292 0,4 C 0,0 km/h (0 Bft)
15.10.2015 12:25 1,9 C 2,5 C 90 % 1010,4 hPa 0,7 mm 3,4 km/h (1 Bft) NW 315 0,4 C 2,6 km/h (1 Bft)
15.10.2015 12:30 2,0 C 2,6 C 89 % 1011,2 hPa 0,0 mm 1,6 km/h (1 Bft) NW 315 0,4 C 3,9 km/h (1 Bft)
15.10.2015 12:35 2,0 C 2,7 C 89 % 1011,2 hPa 0,0 mm 1,0 km/h (0 Bft) N-NW 337 0,4 C 0,0 km/h (0 Bft)
15.10.2015 12:40 2,0 C 2,9 C 89 % 1011,2 hPa 0,0 mm 0,8 km/h (0 Bft) W-NW 292 0,4 C 3,6 km/h (1 Bft)
15.10.2015 12:45 2,1 C 3,0 C 89 % 1011,2 hPa 0,0 mm 1,3 km/h (1 Bft) W 270 0,5 C 0,0 km/h (0 Bft)
15.10.2015 12:50 2,1 C 3,1 C 89 % 1011,2 hPa 0,0 mm 2,1 km/h (1 Bft) W-NW 292 0,5 C 7,3 km/h (2 Bft)
15.10.2015 12:55 2,1 C 3,1 C 89 % 1011,2 hPa 0,0 mm 2,6 km/h (1 Bft) W 270 0,5 C 3,1 km/h (1 Bft)
15.10.2015 13:00 2,2 C 3,2 C 89 % 1011,2 hPa 0,0 mm 2,8 km/h (1 Bft) NW 315 0,6 C 0,0 km/h (0 Bft)
15.10.2015 13:05 2,2 C 3,3 C 89 % 1011,2 hPa 0,7 mm 2,3 km/h (1 Bft) W-NW 292 0,6 C 5,2 km/h (1 Bft)
15.10.2015 13:10 2,2 C 3,3 C 89 % 1011,2 hPa 0,0 mm 1,8 km/h (1 Bft) W 270 0,6 C 0,0 km/h (0 Bft)
15.10.2015 13:15 2,2 C 3,6 C 89 % 1011,2 hPa 0,0 mm 1,8 km/h (1 Bft) NW 315 0,6 C 2,6 km/h (1 Bft)
15.10.2015 13:20 2,3 C 3,8 C 89 % 1011,2 hPa 0,0 mm 1,3 km/h (1 Bft) NW 315 0,7 C 0,0 km/h (0 Bft)
15.10.2015 13:25 2,4 C 4,0 C 89 % 1011,2 hPa 0,0 mm 1,8 km/h (1 Bft) NW 315 0,8 C 3,6 km/h (1 Bft)
15.10.2015 13:30 2,4 C 4,0 C 89 % 1011,2 hPa 0,0 mm 2,3 km/h (1 Bft) NW 315 0,8 C 2,6 km/h (1 Bft)
15.10.2015 13:35 2,4 C 3,9 C 89 % 1011,2 hPa 0,0 mm 2,3 km/h (1 Bft) W 270 0,8 C 0,0 km/h (0 Bft)
15.10.2015 13:40 2,4 C 3,8 C 89 % 1011,2 hPa 0,7 mm 2,1 km/h (1 Bft) N-NO 22 0,8 C 2,6 km/h (1 Bft)
15.10.2015 13:45 2,4 C 3,7 C 89 % 1011,2 hPa 0,0 mm 1,8 km/h (1 Bft) W-NW 292 0,8 C 5,4 km/h (1 Bft)
15.10.2015 13:50 2,5 C 3,8 C 89 % 1011,0 hPa 0,0 mm 2,3 km/h (1 Bft) N-NW 337 0,9 C 5,2 km/h (1 Bft)
15.10.2015 13:55 2,5 C 3,8 C 89 % 1011,0 hPa 0,0 mm 2,6 km/h (1 Bft) N 360 0,9 C 0,0 km/h (0 Bft)
15.10.2015 14:00 2,5 C 3,9 C 89 % 1011,0 hPa 0,0 mm 1,8 km/h (1 Bft) NW 315 0,9 C 2,6 km/h (1 Bft)
15.10.2015 14:05 2,6 C 4,2 C 89 % 1011,0 hPa 0,0 mm 0,8 km/h (0 Bft) N-NW 337 1,0 C 3,1 km/h (1 Bft)
15.10.2015 14:10 2,7 C 4,3 C 89 % 1011,4 hPa 0,0 mm 1,8 km/h (1 Bft) N-NW 337 1,1 C 2,8 km/h (1 Bft)
15.10.2015 14:15 2,7 C 4,4 C 89 % 1011,4 hPa 0,0 mm 1,3 km/h (1 Bft) W-NW 292 1,1 C 0,0 km/h (0 Bft)
15.10.2015 14:20 2,7 C 4,4 C 89 % 1011,4 hPa 0,7 mm 1,3 km/h (1 Bft) NW 315 1,1 C 4,9 km/h (1 Bft)
15.10.2015 14:25 2,9 C 4,2 C 89 % 1011,4 hPa 0,0 mm 2,1 km/h (1 Bft) NW 315 1,3 C 4,1 km/h (1 Bft)
15.10.2015 14:30 2,9 C 4,4 C 90 % 1011,2 hPa 0,0 mm 2,1 km/h (1 Bft) NW 315 1,4 C 0,0 km/h (0 Bft)
15.10.2015 14:35 2,9 C 4,7 C 90 % 1011,2 hPa 0,0 mm 1,6 km/h (1 Bft) NW 315 1,4 C 5,2 km/h (1 Bft)
15.10.2015 14:40 3,0 C 4,6 C 89 % 1011,2 hPa 0,0 mm 2,1 km/h (1 Bft) NW 315 1,4 C 2,6 km/h (1 Bft)
15.10.2015 14:45 3,0 C 4,6 C 89 % 1011,2 hPa 0,0 mm 2,8 km/h (1 Bft) W-NW 292 1,4 C 3,6 km/h (1 Bft)
15.10.2015 14:50 3,1 C 4,8 C 89 % 1011,4 hPa 0,0 mm 1,0 km/h (0 Bft) N-NW 337 1,5 C 0,0 km/h (0 Bft)
15.10.2015 14:55 3,1 C 5,2 C 89 % 1011,4 hPa 0,7 mm 0,3 km/h (0 Bft) W-NW 292 1,5 C 0,0 km/h (0 Bft)
15.10.2015 15:00 3,2 C 5,2 C 89 % 1011,4 hPa 0,0 mm 1,6 km/h (1 Bft) NW 315 1,6 C 4,7 km/h (1 Bft)
15.10.2015 15:04 3,2 C 5,0 C 89 % 1011,4 hPa 0,0 mm 3,4 km/h (1 Bft) N 360 1,6 C 3,4 km/h (1 Bft)
15.10.2015 15:05 3,2 C 5,0 C 89 % 1011,4 hPa 0,0 mm 3,4 km/h (1 Bft) N 360 1,6 C 3,4 km/h (1 Bft)
15.10.2015 15:10 3,3 C 5,0 C 89 % 1011,1 hPa 0,0 mm 3,9 km/h (1 Bft) NW 315 1,7 C 4,4 km/h (1 Bft)
15.10.2015 15:15 3,3 C 4,7 C 89 % 1011,1 hPa 0,0 mm 4,4 km/h (1 Bft) NW 315 1,7 C 4,7 km/h (1 Bft)
15.10.2015 15:20 3,3 C 4,7 C 89 % 1011,1 hPa 0,0 mm 4,4 km/h (1 Bft) NW 315 1,7 C 10,4 km/h (2 Bft)
15.10.2015 15:25 3,3 C 4,5 C 89 % 1011,1 hPa 0,0 mm 3,6 km/h (1 Bft) NW 315 1,7 C 0,0 km/h (0 Bft)
15.10.2015 15:30 3,3 C 4,5 C 89 % 1011,4 hPa 0,0 mm 2,6 km/h (1 Bft) SW 225 1,7 C 0,0 km/h (0 Bft)
15.10.2015 15:35 3,2 C 4,5 C 89 % 1011,4 hPa 0,7 mm 1,3 km/h (1 Bft) W 270 1,6 C 3,1 km/h (1 Bft)
15.10.2015 15:40 3,2 C 4,4 C 89 % 1011,4 hPa 0,0 mm 1,3 km/h (1 Bft) W-NW 292 1,6 C 3,9 km/h (1 Bft)
15.10.2015 15:45 3,1 C 4,2 C 89 % 1011,4 hPa 0,0 mm 1,6 km/h (1 Bft) S 180 1,5 C 3,1 km/h (1 Bft)
15.10.2015 15:50 3,1 C 4,1 C 89 % 1011,3 hPa 0,0 mm 1,0 km/h (0 Bft) SW 225 1,5 C 0,0 km/h (0 Bft)
15.10.2015 15:55 3,1 C 4,0 C 89 % 1011,3 hPa 0,0 mm 0,5 km/h (0 Bft) W-SW 247 1,5 C 4,9 km/h (1 Bft)
15.10.2015 16:00 3,0 C 3,9 C 89 % 1011,3 hPa 0,0 mm 2,1 km/h (1 Bft) SW 225 1,4 C 5,2 km/h (1 Bft)
15.10.2015 16:05 3,0 C 3,7 C 89 % 1011,3 hPa 0,0 mm 3,4 km/h (1 Bft) S 180 1,4 C 3,1 km/h (1 Bft)
15.10.2015 16:10 3,0 C 3,6 C 89 % 1011,6 hPa 0,0 mm 2,3 km/h (1 Bft) S-SW 202 1,4 C 3,1 km/h (1 Bft)
15.10.2015 16:15 3,0 C 3,4 C 89 % 1011,6 hPa 0,7 mm 1,6 km/h (1 Bft) W-SW 247 1,4 C 0,0 km/h (0 Bft)
15.10.2015 16:20 3,0 C 3,4 C 89 % 1011,6 hPa 0,0 mm 1,3 km/h (1 Bft) W-SW 247 1,4 C 0,0 km/h (0 Bft)
15.10.2015 16:25 3,0 C 3,4 C 89 % 1011,6 hPa 0,0 mm 0,0 km/h (0 Bft) SW 225 1,4 C 0,0 km/h (0 Bft)
15.10.2015 16:30 3,0 C 3,3 C 89 % 1011,8 hPa 0,0 mm 0,0 km/h (0 Bft) S-SW 202 1,4 C 0,0 km/h (0 Bft)
15.10.2015 16:35 2,9 C 3,3 C 89 % 1011,8 hPa 0,0 mm 0,3 km/h (0 Bft) W-SW 247 1,3 C 0,0 km/h (0 Bft)
15.10.2015 16:40 2,9 C 3,3 C 89 % 1011,8 hPa 0,0 mm 0,3 km/h (0 Bft) S 180 1,3 C 0,0 km/h (0 Bft)
15.10.2015 16:45 2,9 C 3,3 C 89 % 1011,8 hPa 0,0 mm 0,0 km/h (0 Bft) S 180 1,3 C 0,0 km/h (0 Bft)
15.10.2015 16:50 2,9 C 3,3 C 89 % 1011,8 hPa 0,0 mm 0,0 km/h (0 Bft) S 180 1,3 C 0,0 km/h (0 Bft)
15.10.2015 16:55 2,9 C 3,3 C 89 % 1011,8 hPa 0,0 mm 0,0 km/h (0 Bft) S 180 1,3 C 0,0 km/h (0 Bft)
15.10.2015 17:00 2,9 C 3,3 C 89 % 1011,8 hPa 0,0 mm 0,0 km/h (0 Bft) S 180 1,3 C 0,0 km/h (0 Bft)
15.10.2015 17:05 2,9 C 3,3 C 89 % 1011,8 hPa 0,0 mm 0,0 km/h (0 Bft) S 180 1,3 C 0,0 km/h (0 Bft)
15.10.2015 17:10 2,9 C 3,3 C 89 % 1011,7 hPa 0,7 mm 0,0 km/h (0 Bft) S 180 1,3 C 0,0 km/h (0 Bft)
15.10.2015 17:15 3,0 C 3,4 C 89 % 1011,7 hPa 0,0 mm 0,0 km/h (0 Bft) SW 225 1,4 C 0,0 km/h (0 Bft)
15.10.2015 17:20 3,0 C 3,5 C 89 % 1011,7 hPa 0,0 mm 0,0 km/h (0 Bft) S-SW 202 1,4 C 0,0 km/h (0 Bft)
15.10.2015 17:25 3,1 C 3,8 C 89 % 1011,7 hPa 0,0 mm 0,0 km/h (0 Bft) SW 225 1,5 C 0,0 km/h (0 Bft)
15.10.2015 17:30 3,1 C 3,9 C 89 % 1011,8 hPa 0,0 mm 0,0 km/h (0 Bft) S 180 1,5 C 0,0 km/h (0 Bft)
15.10.2015 17:35 3,2 C 3,9 C 89 % 1011,8 hPa 0,0 mm 0,0 km/h (0 Bft) W-SW 247 1,6 C 0,0 km/h (0 Bft)
15.10.2015 17:40 3,2 C 3,7 C 89 % 1011,8 hPa 0,0 mm 0,3 km/h (0 Bft) W-SW 247 1,6 C 0,0 km/h (0 Bft)
15.10.2015 17:45 3,2 C 3,5 C 89 % 1011,8 hPa 0,0 mm 0,3 km/h (0 Bft) W 270 1,6 C 0,0 km/h (0 Bft)
15.10.2015 17:50 3,1 C 3,3 C 89 % 1011,9 hPa 0,0 mm 0,3 km/h (0 Bft) S 180 1,5 C 0,0 km/h (0 Bft)
15.10.2015 17:55 3,1 C 3,2 C 89 % 1011,9 hPa 0,0 mm 0,8 km/h (0 Bft) W-SW 247 1,5 C 3,1 km/h (1 Bft)
15.10.2015 18:00 3,0 C 3,2 C 89 % 1011,9 hPa 0,0 mm 0,5 km/h (0 Bft) SW 225 1,4 C 0,0 km/h (0 Bft)
15.10.2015 18:05 3,0 C 3,0 C 89 % 1011,9 hPa 0,0 mm 0,0 km/h (0 Bft) SW 225 1,4 C 0,0 km/h (0 Bft)
15.10.2015 18:10 3,0 C 3,0 C 89 % 1012,0 hPa 0,0 mm 0,0 km/h (0 Bft) SW 225 1,4 C 0,0 km/h (0 Bft)
15.10.2015 18:15 3,0 C 2,9 C 90 % 1012,0 hPa 0,0 mm 0,0 km/h (0 Bft) SW 225 1,5 C 0,0 km/h (0 Bft)
15.10.2015 18:20 3,0 C 2,9 C 90 % 1012,0 hPa 0,0 mm 0,0 km/h (0 Bft) S 180 1,5 C 0,0 km/h (0 Bft)
15.10.2015 18:25 2,9 C 2,9 C 89 % 1012,0 hPa 0,7 mm 0,5 km/h (0 Bft) SW 225 1,3 C 0,0 km/h (0 Bft)
15.10.2015 18:30 2,9 C 2,9 C 89 % 1012,0 hPa 0,0 mm 0,5 km/h (0 Bft) SO 135 1,3 C 3,4 km/h (1 Bft)
15.10.2015 18:35 2,9 C 2,8 C 91 % 1012,0 hPa 0,0 mm 0,0 km/h (0 Bft) SO 135 1,6 C 0,0 km/h (0 Bft)
15.10.2015 18:40 2,9 C 2,8 C 92 % 1012,0 hPa 0,0 mm 0,0 km/h (0 Bft) O-SO 112 1,7 C 0,0 km/h (0 Bft)
15.10.2015 18:45 2,9 C 2,8 C 92 % 1012,0 hPa 0,0 mm 0,0 km/h (0 Bft) SO 135 1,7 C 0,0 km/h (0 Bft)
15.10.2015 18:50 2,9 C 2,8 C 92 % 1012,2 hPa 0,0 mm 0,5 km/h (0 Bft) S 180 1,7 C 2,6 km/h (1 Bft)
15.10.2015 18:55 2,7 C 2,8 C 89 % 1012,2 hPa 0,0 mm 1,0 km/h (0 Bft) S-SW 202 1,1 C 0,0 km/h (0 Bft)
15.10.2015 19:00 2,7 C 2,8 C 89 % 1012,2 hPa 0,0 mm 0,8 km/h (0 Bft) W-SW 247 1,1 C 0,0 km/h (0 Bft)
15.10.2015 19:05 2,7 C 2,8 C 89 % 1012,2 hPa 0,0 mm 0,5 km/h (0 Bft) W-SW 247 1,1 C 0,0 km/h (0 Bft)
15.10.2015 19:10 2,7 C 2,8 C 89 % 1012,3 hPa 0,0 mm 0,3 km/h (0 Bft) W-SW 247 1,1 C 0,0 km/h (0 Bft)
15.10.2015 19:15 2,7 C 2,8 C 89 % 1012,3 hPa 0,0 mm 0,0 km/h (0 Bft) S 180 1,1 C 0,0 km/h (0 Bft)
15.10.2015 19:20 2,7 C 2,8 C 89 % 1012,3 hPa 0,0 mm 0,0 km/h (0 Bft) S-SW 202 1,1 C 0,0 km/h (0 Bft)
15.10.2015 19:25 2,7 C 2,8 C 89 % 1012,3 hPa 0,0 mm 0,0 km/h (0 Bft) S 180 1,1 C 0,0 km/h (0 Bft)
15.10.2015 19:30 2,7 C 2,8 C 89 % 1012,6 hPa 0,0 mm 0,0 km/h (0 Bft) S 180 1,1 C 0,0 km/h (0 Bft)
15.10.2015 19:35 2,7 C 2,8 C 89 % 1012,6 hPa 0,0 mm 0,0 km/h (0 Bft) S 180 1,1 C 0,0 km/h (0 Bft)
15.10.2015 19:40 2,7 C 2,8 C 89 % 1012,6 hPa 0,0 mm 0,0 km/h (0 Bft) S 180 1,1 C 0,0 km/h (0 Bft)
15.10.2015 19:45 2,7 C 2,8 C 89 % 1012,6 hPa 0,0 mm 0,0 km/h (0 Bft) S 180 1,1 C 0,0 km/h (0 Bft)
15.10.2015 19:50 2,7 C 2,8 C 89 % 1012,6 hPa 0,0 mm 0,0 km/h (0 Bft) S 180 1,1 C 0,0 km/h (0 Bft)
15.10.2015 19:55 2,7 C 2,8 C 89 % 1012,6 hPa 0,0 mm 0,0 km/h (0 Bft) W-SW 247 1,1 C 0,0 km/h (0 Bft)
15.10.2015 20:00 2,7 C 2,8 C 89 % 1012,6 hPa 0,0 mm 0,0 km/h (0 Bft) W-SW 247 1,1 C 0,0 km/h (0 Bft)
15.10.2015 20:05 2,7 C 2,8 C 89 % 1012,6 hPa 0,0 mm 0,0 km/h (0 Bft) S 180 1,1 C 0,0 km/h (0 Bft)
15.10.2015 20:10 2,9 C 2,8 C 92 % 1012,6 hPa 0,0 mm 0,0 km/h (0 Bft) S 180 1,7 C 0,0 km/h (0 Bft)
15.10.2015 20:15 2,9 C 2,8 C 92 % 1012,6 hPa 0,0 mm 0,0 km/h (0 Bft) S 180 1,7 C 0,0 km/h (0 Bft)
15.10.2015 20:20 2,9 C 2,8 C 92 % 1012,6 hPa 0,0 mm 0,0 km/h (0 Bft) S-SW 202 1,7 C 0,0 km/h (0 Bft)
15.10.2015 20:25 2,9 C 2,8 C 92 % 1012,6 hPa 0,0 mm 0,0 km/h (0 Bft) S 180 1,7 C 2,6 km/h (1 Bft)
15.10.2015 20:30 2,9 C 2,8 C 93 % 1012,6 hPa 0,0 mm 0,0 km/h (0 Bft) S-SO 157 1,9 C 0,0 km/h (0 Bft)
15.10.2015 20:35 2,9 C 2,8 C 93 % 1012,6 hPa 0,0 mm 0,0 km/h (0 Bft) S 180 1,9 C 0,0 km/h (0 Bft)
15.10.2015 20:40 2,9 C 2,8 C 93 % 1012,6 hPa 0,0 mm 0,5 km/h (0 Bft) SW 225 1,9 C 2,8 km/h (1 Bft)
15.10.2015 20:45 2,9 C 2,8 C 93 % 1012,6 hPa 0,0 mm 0,8 km/h (0 Bft) S 180 1,9 C 0,0 km/h (0 Bft)
15.10.2015 20:50 2,9 C 2,8 C 93 % 1012,9 hPa 0,0 mm 0,8 km/h (0 Bft) S 180 1,9 C 0,0 km/h (0 Bft)
15.10.2015 20:55 2,9 C 2,8 C 93 % 1012,9 hPa 0,0 mm 0,0 km/h (0 Bft) S 180 1,9 C 0,0 km/h (0 Bft)
15.10.2015 21:00 2,9 C 2,8 C 93 % 1012,9 hPa 0,0 mm 0,3 km/h (0 Bft) S-SW 202 1,9 C 0,0 km/h (0 Bft)
15.10.2015 21:04 2,9 C 2,8 C 89 % 1012,9 hPa 0,0 mm 0,3 km/h (0 Bft) S 180 1,3 C 0,0 km/h (0 Bft)
15.10.2015 21:06 2,9 C 2,8 C 89 % 1012,9 hPa 0,0 mm 0,3 km/h (0 Bft) S 180 1,3 C 0,0 km/h (0 Bft)
15.10.2015 21:10 2,9 C 2,9 C 89 % 1013,1 hPa 0,0 mm 0,0 km/h (0 Bft) S 180 1,3 C 0,0 km/h (0 Bft)
15.10.2015 21:15 2,9 C 2,9 C 89 % 1013,1 hPa 0,0 mm 0,0 km/h (0 Bft) S 180 1,3 C 0,0 km/h (0 Bft)
15.10.2015 21:20 2,9 C 2,9 C 89 % 1013,1 hPa 0,0 mm 0,0 km/h (0 Bft) S 180 1,3 C 0,0 km/h (0 Bft)
15.10.2015 21:25 2,9 C 2,9 C 89 % 1013,1 hPa 0,0 mm 0,0 km/h (0 Bft) S 180 1,3 C 0,0 km/h (0 Bft)
15.10.2015 21:30 2,9 C 2,9 C 89 % 1013,1 hPa 0,0 mm 0,0 km/h (0 Bft) S 180 1,3 C 0,0 km/h (0 Bft)
15.10.2015 21:35 2,9 C 2,8 C 89 % 1013,1 hPa 0,7 mm 0,0 km/h (0 Bft) NW 315 1,3 C 0,0 km/h (0 Bft)
15.10.2015 21:40 3,0 C 2,9 C 92 % 1013,1 hPa 0,0 mm 0,0 km/h (0 Bft) NW 315 1,8 C 0,0 km/h (0 Bft)
15.10.2015 21:45 3,0 C 2,9 C 89 % 1013,1 hPa 0,0 mm 0,0 km/h (0 Bft) NW 315 1,4 C 0,0 km/h (0 Bft)
15.10.2015 21:50 3,0 C 2,9 C 89 % 1013,5 hPa 0,0 mm 0,0 km/h (0 Bft) W-NW 292 1,4 C 0,0 km/h (0 Bft)
15.10.2015 21:55 3,0 C 2,9 C 89 % 1013,5 hPa 0,0 mm 0,0 km/h (0 Bft) W-NW 292 1,4 C 0,0 km/h (0 Bft)
15.10.2015 22:00 3,0 C 2,9 C 92 % 1013,5 hPa 0,0 mm 0,0 km/h (0 Bft) W 270 1,8 C 0,0 km/h (0 Bft)
15.10.2015 22:05 3,0 C 2,9 C 92 % 1013,5 hPa 0,0 mm 0,0 km/h (0 Bft) W 270 1,8 C 0,0 km/h (0 Bft)
15.10.2015 22:10 2,9 C 2,9 C 89 % 1013,5 hPa 0,0 mm 0,0 km/h (0 Bft) W 270 1,3 C 0,0 km/h (0 Bft)
15.10.2015 22:15 3,0 C 2,9 C 92 % 1013,5 hPa 0,0 mm 0,0 km/h (0 Bft) S-SW 202 1,8 C 0,0 km/h (0 Bft)
15.10.2015 22:20 2,9 C 2,9 C 90 % 1013,5 hPa 0,0 mm 0,0 km/h (0 Bft) S 180 1,4 C 0,0 km/h (0 Bft)
15.10.2015 22:25 3,0 C 2,9 C 92 % 1013,5 hPa 0,0 mm 0,0 km/h (0 Bft) SW 225 1,8 C 0,0 km/h (0 Bft)
15.10.2015 22:30 3,0 C 3,0 C 89 % 1013,6 hPa 0,0 mm 0,0 km/h (0 Bft) W-SW 247 1,4 C 0,0 km/h (0 Bft)
15.10.2015 22:35 3,0 C 3,0 C 89 % 1013,6 hPa 0,0 mm 1,0 km/h (0 Bft) W-SW 247 1,4 C 0,0 km/h (0 Bft)
15.10.2015 22:40 3,0 C 3,1 C 89 % 1013,6 hPa 0,0 mm 1,0 km/h (0 Bft) W-SW 247 1,4 C 0,0 km/h (0 Bft)
15.10.2015 22:45 3,1 C 3,0 C 89 % 1013,6 hPa 0,0 mm 0,3 km/h (0 Bft) SW 225 1,5 C 0,0 km/h (0 Bft)
15.10.2015 22:50 3,1 C 3,0 C 89 % 1013,8 hPa 0,0 mm 0,0 km/h (0 Bft) W-SW 247 1,5 C 0,0 km/h (0 Bft)
15.10.2015 22:55 3,1 C 3,0 C 89 % 1013,8 hPa 0,0 mm 0,0 km/h (0 Bft) W-SW 247 1,5 C 0,0 km/h (0 Bft)
15.10.2015 23:00 3,1 C 3,0 C 89 % 1013,8 hPa 0,0 mm 0,0 km/h (0 Bft) SW 225 1,5 C 0,0 km/h (0 Bft)
15.10.2015 23:05 3,1 C 3,0 C 89 % 1013,8 hPa 0,0 mm 0,5 km/h (0 Bft) W-SW 247 1,5 C 0,0 km/h (0 Bft)
15.10.2015 23:10 3,1 C 3,0 C 89 % 1013,7 hPa 0,0 mm 0,5 km/h (0 Bft) SW 225 1,5 C 2,6 km/h (1 Bft)
15.10.2015 23:15 3,1 C 3,0 C 89 % 1013,7 hPa 0,0 mm 0,8 km/h (0 Bft) W-SW 247 1,5 C 0,0 km/h (0 Bft)
15.10.2015 23:20 3,1 C 3,0 C 89 % 1013,7 hPa 0,0 mm 0,8 km/h (0 Bft) W-SW 247 1,5 C 0,0 km/h (0 Bft)
15.10.2015 23:25 3,1 C 3,0 C 89 % 1013,7 hPa 0,0 mm 0,3 km/h (0 Bft) W-SW 247 1,5 C 0,0 km/h (0 Bft)
15.10.2015 23:30 3,1 C 3,0 C 89 % 1013,9 hPa 0,0 mm 0,3 km/h (0 Bft) W-SW 247 1,5 C 0,0 km/h (0 Bft)
15.10.2015 23:35 3,1 C 3,0 C 89 % 1013,9 hPa 0,0 mm 0,5 km/h (0 Bft) S-SW 202 1,5 C 0,0 km/h (0 Bft)
15.10.2015 23:40 3,1 C 3,0 C 89 % 1013,9 hPa 0,0 mm 0,5 km/h (0 Bft) W 270 1,5 C 0,0 km/h (0 Bft)
15.10.2015 23:45 3,1 C 3,0 C 89 % 1013,9 hPa 0,0 mm 0,0 km/h (0 Bft) SW 225 1,5 C 0,0 km/h (0 Bft)
15.10.2015 23:50 3,1 C 3,0 C 89 % 1013,9 hPa 0,0 mm 0,0 km/h (0 Bft) SW 225 1,5 C 0,0 km/h (0 Bft)
15.10.2015 23:55 3,1 C 3,0 C 89 % 1013,9 hPa 0,0 mm 0,0 km/h (0 Bft) W 270 1,5 C 0,0 km/h (0 Bft)
_ Min-Zeit 05:15 05:15 01:00 09:05 - 23:55 - - 01:00 23:55
Minimum _ 0,1 C -0,1 C 87 % 1010,0 hPa - 0,0 km/h (0 Bft) - - -1,7 C 0,0 km/h (0 Bft)
_ Max-Zeit 15:30 15:00 21:00 23:55 21:35 15:20 - - 21:00 15:20
Maximum _ 3,3 C 5,2 C 93 % 1013,9 hPa 0,7 mm 4,4 km/h
NW (1 Bft)
- - 1,9 C 10,4 km/h
NW (2 Bft)
Durchschnitt _ 1,6 C 1,9 C 90 % 1011,6 hPa #8,9 mm 0,5 km/h (0 Bft) NW - 0,2 C 0,7 km/h (0 Bft)